Pittsfield, IL

2:35 AM CDT on March 28, 2017 (GMT -0500)
Pittsfield Penstone Municipal

Weather History for KPPQ - January, 2006

Change the Weather History Date:

Tuesday, January 17, 2006

  Actual Average (KUIN) Record (KUIN)
Temperature  
Mean Temperature 30 °F -  
Max Temperature 35 °F 31 °F 63 °F (1996)
Min Temperature 26 °F 15 °F -19 °F (1977)
Degree Days  
Heating Degree Days 34    
Moisture  
Dew Point 22 °F    
Average Humidity 71    
Maximum Humidity 87    
Minimum Humidity 60    
Precipitation  
Precipitation 0.00 in - - ()
Sea Level Pressure  
Sea Level Pressure 29.71 in    
Wind  
Wind Speed 15 mph (WNW)    
Max Wind Speed 22 mph    
Max Gust Speed 32 mph    
Visibility 10 miles    
Events      
Averages and records for this station are not official NWS values.
T = Trace of Precipitation, MM = Missing Value Source: NWS Daily Summary

Daily Weather History Graph

Daily Weather History Graph

Search for Another Location

Airport or City:

Trip Planner

Search our weather history database for the weather conditions in past years. The results will help you decide how hot, cold, wet, or windy it might be!

Date:

Astronomy

Jan. 17, 2006 Rise Set
Actual Time 7:21 AM CST 5:05 PM CST
Civil Twilight 6:51 AM CST 5:34 PM CST
Nautical Twilight 6:18 AM CST 6:08 PM CST
Astronomical Twilight 5:46 AM CST 6:40 PM CST
Moon 8:20 PM CST (1/17) 9:22 AM CST (1/17)
Length of Visible Light 10h 43m
Length of Day
9h 44m
Waning Gibbous, 90% of the Moon is Illuminated
Jan 17
Waning Gibbous
Jan 22
Last Quarter
Jan 29
New
Feb 5
First Quarter
Feb 12
Full

Hourly Weather History & Observations

Time (CST) Temp. Windchill Dew Point Humidity Pressure Visibility Wind Dir Wind Speed Gust Speed Precip Events Conditions
12:03 AM 35.6 °F 27.1 °F 30.2 °F 81% 29.72 in 7.0 mi WNW 12.7 mph 20.7 mph N/A   Overcast
12:23 AM 35.6 °F 26.2 °F 30.2 °F 81% 29.70 in 7.0 mi WNW 15.0 mph 24.2 mph N/A   Overcast
12:43 AM 35.6 °F 25.5 °F 32.0 °F 87% 29.67 in 7.0 mi WNW 17.3 mph 23.0 mph N/A   Overcast
1:03 AM 35.6 °F 28.0 °F 30.2 °F 81% 29.71 in 7.0 mi WNW 10.4 mph 24.2 mph N/A   Overcast
1:23 AM 35.6 °F 27.1 °F 30.2 °F 81% 29.70 in 7.0 mi WNW 12.7 mph 18.4 mph N/A   Overcast
1:43 AM 35.6 °F 25.5 °F 30.2 °F 81% 29.68 in 10.0 mi WNW 17.3 mph 26.5 mph N/A   Overcast
2:03 AM 33.8 °F 26.4 °F 30.2 °F 87% 29.71 in 7.0 mi WNW 9.2 mph - N/A   Overcast
2:23 AM 33.8 °F 22.8 °F 28.4 °F 81% 29.71 in 10.0 mi WNW 18.4 mph - N/A   Overcast
2:43 AM 33.8 °F 25.3 °F 28.4 °F 81% 29.71 in 10.0 mi WNW 11.5 mph - N/A   Overcast
3:04 AM 33.8 °F 25.3 °F 28.4 °F 81% 29.71 in 10.0 mi WNW 11.5 mph 16.1 mph N/A   Overcast
3:23 AM 33.8 °F 23.2 °F 28.4 °F 81% 29.71 in 10.0 mi WNW 17.3 mph 21.9 mph N/A   Overcast
3:43 AM 33.8 °F 24.3 °F 26.6 °F 75% 29.73 in 10.0 mi WNW 13.8 mph - N/A   Overcast
4:03 AM 32.0 °F 22.1 °F 26.6 °F 80% 29.72 in 10.0 mi WNW 13.8 mph - N/A   Overcast
4:23 AM 32.0 °F 22.5 °F 26.6 °F 80% 29.71 in 10.0 mi WNW 12.7 mph 18.4 mph N/A   Overcast
4:43 AM 32.0 °F 22.1 °F 26.6 °F 80% 29.70 in 10.0 mi WNW 13.8 mph 23.0 mph N/A   Overcast
5:03 AM 30.2 °F 18.9 °F 26.6 °F 86% 29.70 in 10.0 mi WNW 16.1 mph 21.9 mph N/A   Overcast
5:23 AM 30.2 °F 18.9 °F 26.6 °F 86% 29.71 in 10.0 mi WNW 16.1 mph 20.7 mph N/A   Overcast
5:43 AM 30.2 °F 18.1 °F 24.8 °F 80% 29.71 in 10.0 mi WNW 18.4 mph 27.6 mph N/A   Overcast
6:03 AM 30.2 °F 20.8 °F 23.0 °F 75% 29.72 in 10.0 mi WNW 11.5 mph 17.3 mph N/A   Overcast
6:23 AM 30.2 °F 18.9 °F 23.0 °F 75% 29.71 in 10.0 mi WNW 16.1 mph 25.3 mph N/A   Overcast
6:43 AM 28.4 °F 17.0 °F 23.0 °F 80% 29.71 in 10.0 mi WNW 15.0 mph 24.2 mph N/A   Scattered Clouds
7:04 AM 28.4 °F 19.1 °F 23.0 °F 80% 29.71 in 10.0 mi WNW 10.4 mph 17.3 mph N/A   Scattered Clouds
7:23 AM 28.4 °F 15.8 °F 19.4 °F 69% 29.71 in 10.0 mi WNW 18.4 mph 24.2 mph N/A   Mostly Cloudy
7:43 AM 28.4 °F 16.6 °F 19.4 °F 69% 29.73 in 10.0 mi WNW 16.1 mph 23.0 mph N/A   Scattered Clouds
8:03 AM 28.4 °F 18.0 °F 19.4 °F 69% 29.74 in 10.0 mi WNW 12.7 mph 20.7 mph N/A   Mostly Cloudy
8:23 AM 28.4 °F 18.0 °F 19.4 °F 69% 29.73 in 10.0 mi WNW 12.7 mph 23.0 mph N/A   Mostly Cloudy
8:43 AM 28.4 °F 17.0 °F 19.4 °F 69% 29.72 in 10.0 mi WNW 15.0 mph 23.0 mph N/A   Mostly Cloudy
9:03 AM 28.4 °F 18.0 °F 19.4 °F 69% 29.73 in 10.0 mi WNW 12.7 mph 23.0 mph N/A   Overcast
9:23 AM 26.6 °F 12.7 °F 17.6 °F 69% 29.71 in 10.0 mi WNW 20.7 mph 26.5 mph N/A   Overcast
9:43 AM 26.6 °F 13.4 °F 17.6 °F 69% 29.71 in 10.0 mi WNW 18.4 mph 28.8 mph N/A   Mostly Cloudy
10:03 AM 26.6 °F 12.4 °F 17.6 °F 69% 29.73 in 10.0 mi WNW 21.9 mph 32.2 mph N/A   Mostly Cloudy
10:23 AM 28.4 °F 17.0 °F 19.4 °F 69% 29.73 in 10.0 mi WNW 15.0 mph 26.5 mph N/A   Mostly Cloudy
10:43 AM 28.4 °F 15.1 °F 19.4 °F 69% 29.73 in 10.0 mi WNW 20.7 mph 28.8 mph N/A   Scattered Clouds
11:03 AM 30.2 °F 18.5 °F 19.4 °F 64% 29.73 in 10.0 mi WNW 17.3 mph 27.6 mph N/A   Scattered Clouds
11:23 AM 30.2 °F 17.4 °F 19.4 °F 64% 29.71 in 10.0 mi WNW 20.7 mph 29.9 mph N/A   Scattered Clouds
11:44 AM 30.2 °F 18.1 °F 19.4 °F 64% 29.72 in 10.0 mi WNW 18.4 mph 27.6 mph N/A   Mostly Cloudy
12:04 PM 30.2 °F 18.5 °F 19.4 °F 64% 29.71 in 10.0 mi WNW 17.3 mph 27.6 mph N/A   Overcast
12:23 PM 30.2 °F 19.3 °F 21.2 °F 69% 29.70 in 10.0 mi WNW 15.0 mph 28.8 mph N/A   Overcast
12:43 PM 30.2 °F 18.9 °F 19.4 °F 64% 29.67 in 10.0 mi WNW 16.1 mph 29.9 mph N/A   Overcast
1:03 PM 30.2 °F 17.8 °F 19.4 °F 64% 29.67 in 10.0 mi WNW 19.6 mph 25.3 mph N/A   Overcast
1:23 PM 30.2 °F 17.4 °F 19.4 °F 64% 29.66 in 10.0 mi WNW 20.7 mph 24.2 mph N/A   Overcast
1:43 PM 30.2 °F 18.5 °F 19.4 °F 64% 29.67 in 10.0 mi WNW 17.3 mph 26.5 mph N/A   Overcast
2:03 PM 30.2 °F 18.9 °F 19.4 °F 64% 29.67 in 10.0 mi WNW 16.1 mph 28.8 mph N/A   Overcast
2:23 PM 30.2 °F 18.1 °F 19.4 °F 64% 29.68 in 10.0 mi West 18.4 mph 24.2 mph N/A   Overcast
2:43 PM 32.0 °F 21.6 °F 19.4 °F 60% 29.68 in 10.0 mi WNW 15.0 mph 25.3 mph N/A   Overcast
3:03 PM 30.2 °F 17.4 °F 19.4 °F 64% 29.70 in 10.0 mi WNW 20.7 mph 28.8 mph N/A   Overcast
3:23 PM 32.0 °F 22.5 °F 19.4 °F 60% 29.70 in 10.0 mi WNW 12.7 mph 25.3 mph N/A   Overcast
3:43 PM 30.2 °F 18.5 °F 17.6 °F 60% 29.71 in 10.0 mi WNW 17.3 mph 29.9 mph N/A   Overcast
4:03 PM 30.2 °F 19.3 °F 17.6 °F 60% 29.71 in 10.0 mi WNW 15.0 mph 23.0 mph N/A   Overcast
4:24 PM 30.2 °F 19.3 °F 17.6 °F 60% 29.72 in 10.0 mi WNW 15.0 mph 23.0 mph N/A   Overcast
4:43 PM 30.2 °F 19.8 °F 17.6 °F 60% 29.72 in 10.0 mi West 13.8 mph 25.3 mph N/A   Overcast
5:05 PM 30.2 °F 20.2 °F 17.6 °F 60% 29.73 in 10.0 mi WNW 12.7 mph 21.9 mph N/A   Overcast
5:23 PM 30.2 °F 20.8 °F 17.6 °F 60% 29.74 in 10.0 mi West 11.5 mph 17.3 mph N/A   Overcast
5:43 PM 30.2 °F 19.8 °F 19.4 °F 64% 29.75 in 10.0 mi West 13.8 mph 19.6 mph N/A   Overcast
6:03 PM 30.2 °F 21.3 °F 19.4 °F 64% 29.75 in 10.0 mi West 10.4 mph 20.7 mph N/A   Overcast
6:23 PM 30.2 °F 21.3 °F 19.4 °F 64% 29.75 in 10.0 mi West 10.4 mph - N/A   Overcast
6:43 PM 30.2 °F 20.8 °F 21.2 °F 69% 29.75 in 10.0 mi West 11.5 mph - N/A Snow Light Snow
7:03 PM 30.2 °F 23.4 °F 21.2 °F 69% 29.75 in 5.0 mi West 6.9 mph - N/A Snow Light Snow
7:23 PM 30.2 °F 22.6 °F 21.2 °F 69% 29.75 in 10.0 mi West 8.1 mph - N/A   Overcast
7:43 PM 30.2 °F 20.2 °F 21.2 °F 69% 29.75 in 10.0 mi West 12.7 mph 18.4 mph N/A   Overcast
8:03 PM 30.2 °F 21.3 °F 23.0 °F 75% 29.75 in 7.0 mi West 10.4 mph 16.1 mph N/A Snow Light Snow
8:23 PM 30.2 °F 21.3 °F 24.8 °F 80% 29.75 in 10.0 mi West 10.4 mph - N/A Snow Light Snow
8:44 PM 30.2 °F 20.8 °F 24.8 °F 80% 29.75 in 10.0 mi WNW 11.5 mph 18.4 mph N/A Snow Light Snow
9:03 PM 30.2 °F 19.3 °F 23.0 °F 75% 29.74 in 10.0 mi West 15.0 mph 21.9 mph N/A   Overcast
9:23 PM 30.2 °F 18.1 °F 21.2 °F 69% 29.74 in 10.0 mi West 18.4 mph 25.3 mph N/A   Overcast
9:44 PM 30.2 °F 20.2 °F 21.2 °F 69% 29.74 in 10.0 mi WNW 12.7 mph 18.4 mph N/A   Overcast
10:03 PM 28.4 °F 17.5 °F 19.4 °F 69% 29.75 in 10.0 mi WNW 13.8 mph 20.7 mph N/A   Overcast
10:23 PM 28.4 °F 16.2 °F 17.6 °F 64% 29.75 in 10.0 mi WNW 17.3 mph 23.0 mph N/A   Overcast
10:43 PM 28.4 °F 17.5 °F 17.6 °F 64% 29.76 in 10.0 mi WNW 13.8 mph 21.9 mph N/A   Overcast
11:04 PM 28.4 °F 17.5 °F 17.6 °F 64% 29.76 in 10.0 mi WNW 13.8 mph 23.0 mph N/A   Overcast
11:23 PM 28.4 °F 17.0 °F 17.6 °F 64% 29.76 in 10.0 mi WNW 15.0 mph 21.9 mph N/A   Overcast
11:43 PM 28.4 °F 19.7 °F 17.6 °F 64% 29.75 in 10.0 mi WNW 9.2 mph 17.3 mph N/A   Overcast